Weather in Shire

Ethiopia     14°06′18″N   38°16′42″E
temp.,
°C
wind,
m/s
gust,
m/s
humid.,
%
clouds,
%
prec.,
mm/h
press.,
hPa
HPBL,
m
18 may, wed
wed1800:00+24ne22205 0.0 101218
03:00+22ne221399 0.0 101113
06:00+21ene331184 0.0 101217
09:00+28ese347100 0.0 10121228
12:00+32sse447100 0.0 10103447
15:00+34nw33690 0.0 10064238
18:00+32nne44699 0.0 10062426
21:00+26ene471554 0.0 1010157
19 may, thu
thu1900:00+23ene462211 0.0 1011103
03:00+22ene332026 0.0 101126
06:00+20e3322100 0.0 101234
09:00+28ese791022 0.0 10121204
12:00+32se67788 0.0 10103428
15:00+34e345100 0.0 10074146
18:00+33ene1269 0.0 10072098
21:00+26e915154 0.0 1010540
20 may, fri
fri2000:00+23e48183 0.0 1011193
03:00+22e614173 0.0 1010339
06:00+22e510195 0.0 1011244
09:00+29ese912125 0.0 10111627
12:00+33se768100 0.0 10093537
15:00+34s457100 0.0 10064066
18:00+32ese458100 0.0 10062271
21:00+26ese51314100 0.0 1010414
21 may, sat
sat2100:00+24ene34160 0.0 101141
03:00+22e45185 0.0 100978
06:00+21e32204 0.0 101121
09:00+29ese21145 0.0 1012940
12:00+33wsw231254 0.0 10094232
15:00+33nw641294 0.0 10074045
18:00+29w982698 0.0 10091327
21:00+25ese113269 0.0 101211
22 may, sun
sun2200:00+24ene223356 0.0 101215
03:00+23ne113237 0.0 101011
06:00+23ne113164 0.0 101111
09:00+29nw23235 0.0 10121652
12:00+33nnw441596 0.0 10094092
15:00+34nw541490 0.0 10064015
18:00+30nw872448 0.0 10072018
21:00+25nw254094 0.0 1012486